Paducah, KY

4:30 AM CDT on May 27, 2017 (GMT -0500)
Barkley Regional

Weather History for KPAH - August, 2014

Change the Weather History Date:

Tuesday, August 19, 2014

  Actual Average Record
Temperature  
Mean Temperature 83 °F 78 °F  
Max Temperature 93 °F 89 °F 98 °F (1962)
Min Temperature 72 °F 66 °F 57 °F (1982)
Degree Days  
Heating Degree Days 0 0  
Month to date heating degree days 0 0  
Since 1 June heating degree days 0 4  
Since 1 July heating degree days 0 0  
Cooling Degree Days 18 13  
Month to date cooling degree days 244 248  
Year to date cooling degree days 1243 1171  
Since 1 June cooling degree days 965 999  
Growing Degree Days 32 (Base 50)    
Moisture  
Dew Point 72 °F    
Average Humidity 75    
Maximum Humidity 94    
Minimum Humidity 56    
Precipitation  
Precipitation 0.21 in 0.08 in 1.71 in (1954)
Month to date precipitation 2.75 1.75  
Year to date precipitation 31.67 31.47  
Snow  
Snow 0.00 in 0.00 in - ()
Month to date snowfall 0.0 0.0  
Since 1 June snowfall 0.0 0.0  
Since 1 July snowfall 0.0 0.0  
Snow Depth 0.00 in    
Sea Level Pressure  
Sea Level Pressure 29.83 in    
Wind  
Wind Speed 5 mph (SSW)    
Max Wind Speed 46 mph    
Max Gust Speed 63 mph    
Visibility 5 miles    
Events Fog , Rain , Thunderstorm    
T = Trace of Precipitation, MM = Missing Value Source: NWS Daily Summary

Daily Weather History Graph

Daily Weather History Graph

Search for Another Location

Airport or City:

Trip Planner

Search our weather history database for the weather conditions in past years. The results will help you decide how hot, cold, wet, or windy it might be!

Date:

Astronomy

Aug. 19, 2014 Rise Set
Actual Time 6:15 AM CDT 7:41 PM CDT
Civil Twilight 5:47 AM CDT 8:08 PM CDT
Nautical Twilight 5:14 AM CDT 8:41 PM CDT
Astronomical Twilight 4:40 AM CDT 9:15 PM CDT
Moon 1:09 AM CDT (8/19) 3:35 PM CDT (8/19)
Length of Visible Light 14h 21m
Length of Day
13h 26m
Waning Crescent, 29% of the Moon is Illuminated
Aug 19
Waning Crescent
Aug 25
New
Sep 2
First Quarter
Sep 8
Full
Sep 15
Last Quarter

Hourly Weather History & Observations

Time (CDT) Temp. Heat Index Dew Point Humidity Pressure Visibility Wind Dir Wind Speed Gust Speed Precip Events Conditions
12:53 AM 71.1 °F - 68.0 °F 90% 29.82 in 5.0 mi SW 4.6 mph - N/A   Clear
1:53 AM 72.0 °F - 70.0 °F 93% 29.81 in 5.0 mi SW 3.5 mph - N/A   Clear
2:08 AM 73.0 °F - 71.1 °F 93% 29.83 in 3.0 mi SW 4.6 mph - N/A   Scattered Clouds
2:11 AM 73.0 °F - 71.1 °F 93% 29.83 in 2.0 mi SW 4.6 mph - N/A   Mostly Cloudy
2:16 AM 73.0 °F - 70.0 °F 90% 29.82 in 0.8 mi WSW 4.6 mph - N/A   Mist
2:27 AM 73.0 °F - 70.0 °F 90% 29.82 in 0.2 mi SW 3.5 mph - N/A Fog Fog
2:50 AM 73.4 °F - 71.6 °F 94% 29.82 in 0.5 mi SW 3.5 mph - N/A Fog Fog
2:53 AM 73.0 °F - 71.1 °F 93% 29.81 in 0.5 mi WSW 3.5 mph - N/A Fog Fog
3:11 AM 73.0 °F - 71.1 °F 93% 29.81 in 0.2 mi WSW 3.5 mph - N/A Fog Fog
3:27 AM 73.0 °F - 71.1 °F 93% 29.82 in 0.5 mi SW 3.5 mph - N/A Fog Fog
3:53 AM 73.9 °F - 72.0 °F 93% 29.81 in 0.2 mi SSW 3.5 mph - N/A Fog Fog
4:29 AM 73.9 °F - 72.0 °F 93% 29.84 in 0.5 mi Calm Calm - N/A Fog Fog
4:53 AM 73.9 °F - 72.0 °F 93% 29.83 in 0.5 mi Calm Calm - N/A Fog Fog
5:01 AM 73.9 °F - 72.0 °F 93% 29.84 in 0.2 mi Calm Calm - N/A Fog Fog
5:22 AM 75.0 °F - 72.0 °F 90% 29.85 in 0.5 mi Variable 3.5 mph - N/A Fog Fog
5:45 AM 75.0 °F - 73.0 °F 94% 29.84 in 0.2 mi South 3.5 mph - N/A Fog Fog
5:53 AM 75.0 °F - 73.0 °F 94% 29.83 in 0.2 mi South 3.5 mph - N/A Fog Fog
6:53 AM 75.0 °F - 73.0 °F 94% 29.84 in 0.2 mi SSE 3.5 mph - N/A Fog Fog
7:45 AM 75.0 °F - 73.0 °F 94% 29.86 in 0.8 mi Variable 3.5 mph - N/A   Overcast
7:53 AM 75.0 °F - 73.0 °F 94% 29.85 in 0.8 mi South 4.6 mph - N/A   Overcast
8:01 AM 75.0 °F - 73.0 °F 94% 29.86 in 1.0 mi South 5.8 mph - N/A   Overcast
8:42 AM 75.9 °F - 73.0 °F 91% 29.87 in 3.0 mi SSW 4.6 mph - N/A   Overcast
8:53 AM 75.9 °F - 73.9 °F 94% 29.86 in 3.0 mi Variable 4.6 mph - N/A   Overcast
9:18 AM 78.1 °F - 73.0 °F 84% 29.87 in 8.0 mi SSW 4.6 mph - N/A   Scattered Clouds
9:42 AM 81.0 °F 86.2 °F 73.9 °F 79% 29.87 in 9.0 mi Variable 5.8 mph - N/A   Mostly Cloudy
9:53 AM 80.1 °F 84.2 °F 73.0 °F 79% 29.87 in 9.0 mi SSW 6.9 mph - N/A   Mostly Cloudy
10:03 AM 81.0 °F 86.2 °F 73.9 °F 79% 29.88 in 9.0 mi SSW 6.9 mph - N/A   Scattered Clouds
10:53 AM 84.9 °F 92.1 °F 73.9 °F 69% 29.85 in 10.0 mi Variable 4.6 mph - N/A   Clear
11:53 AM 88.0 °F 96.5 °F 73.9 °F 63% 29.85 in 10.0 mi Variable 6.9 mph - N/A   Clear
12:53 PM 90.0 °F 100.2 °F 75.0 °F 61% 29.84 in 10.0 mi SW 8.1 mph - N/A   Clear
1:53 PM 91.0 °F 101.6 °F 75.0 °F 59% 29.83 in 10.0 mi SSW 6.9 mph - N/A   Partly Cloudy
2:53 PM 91.0 °F 101.6 °F 75.0 °F 59% 29.80 in 10.0 mi SW 6.9 mph - N/A   Partly Cloudy
3:53 PM 90.0 °F 96.9 °F 72.0 °F 55% 29.81 in 10.0 mi WSW 10.4 mph - N/A   Clear
4:21 PM 88.0 °F 96.5 °F 73.9 °F 63% 29.83 in 10.0 mi West 6.9 mph - N/A Thunderstorm Mostly Cloudy
4:32 PM 82.9 °F 87.5 °F 71.1 °F 67% 29.86 in 8.0 mi NW 26.5 mph 40.3 mph 0.00 in Rain , Thunderstorm Light Thunderstorms and Rain
4:41 PM 73.9 °F - 66.9 °F 79% 29.86 in 0.8 mi North 44.9 mph 63.3 mph 0.00 in Rain , Thunderstorm Light Thunderstorms and Rain
4:47 PM 75.2 °F - 64.4 °F 69% 29.83 in 0.5 mi ENE 20.7 mph 63.3 mph 0.11 in Rain , Thunderstorm Heavy Thunderstorms and Rain
4:48 PM 75.9 °F - 66.0 °F 71% 29.82 in 0.5 mi East 20.7 mph 63.3 mph 0.17 in Rain , Thunderstorm Thunderstorms and Rain
4:51 PM 80.1 °F 82.7 °F 68.0 °F 67% 29.82 in 1.0 mi East 8.1 mph 47.2 mph 0.04 in Rain , Thunderstorm Light Thunderstorms and Rain
4:55 PM 81.0 °F 84.1 °F 69.1 °F 67% 29.81 in 4.0 mi Variable 3.5 mph 29.9 mph 0.04 in Rain , Thunderstorm Light Thunderstorms and Rain
5:12 PM 82.0 °F 86.7 °F 72.0 °F 71% 29.79 in 10.0 mi South 4.6 mph - 0.04 in Rain Light Rain
5:53 PM 81.0 °F 86.2 °F 73.9 °F 79% 29.80 in 10.0 mi South 3.5 mph - 0.04 in   Clear
6:53 PM 80.1 °F 84.2 °F 73.0 °F 79% 29.81 in 10.0 mi SSW 3.5 mph - N/A   Clear
7:53 PM 79.0 °F - 73.0 °F 82% 29.80 in 10.0 mi WSW 3.5 mph - N/A   Clear
8:53 PM 80.1 °F 84.2 °F 73.0 °F 79% 29.82 in 10.0 mi SSW 5.8 mph - N/A   Clear
9:53 PM 80.1 °F 84.2 °F 73.0 °F 79% 29.83 in 10.0 mi SW 5.8 mph - N/A   Clear
10:53 PM 78.1 °F - 73.0 °F 84% 29.83 in 10.0 mi Calm Calm - N/A   Clear
11:53 PM 78.1 °F - 73.0 °F 84% 29.83 in 10.0 mi SSW 3.5 mph - N/A   Clear